W0KHZ Weather Reports


Display with metric or nautical units.
time (UTC)temp
F
wind
direction
speed
MPH
gust
MPH
rain 1hr
in
rain 24hr
in
rain mn
in
humidity
%
barometer
mb
20260505223530 52 306 3.0 10.0 0.00 0.00 0.00 37 1008.3
20260505223048 52 299 3.0 6.0 0.00 0.00 0.00 37 1008.2
20260505222527 52 293 3.0 7.0 0.00 0.00 0.00 37 1008.2
20260505222025 52 322 2.0 6.0 0.00 0.00 0.00 37 1008.2
20260505221523 52 310 3.0 11.0 0.00 0.00 0.00 37 1008.3
20260505221021 52 292 2.0 6.0 0.00 0.00 0.00 37 1008.0
20260505220520 52 326 1.0 4.0 0.00 0.00 0.00 37 1008.0
20260505220018 52 278 2.0 3.0 0.00 0.00 0.00 36 1008.2
20260505215555 52 314 3.0 8.0 0.00 0.00 0.00 36 1008.3
20260505215032 52 329 3.0 7.0 0.00 0.00 0.00 36 1008.2
20260505214530 52 315 3.0 8.0 0.00 0.00 0.00 36 1008.2
20260505214028 52 303 3.0 13.0 0.00 0.00 0.00 36 1008.2
20260505213526 53 10 2.0 4.0 0.00 0.00 0.00 36 1008.1
20260505213044 53 299 2.0 9.0 0.00 0.00 0.00 36 1008.2
20260505212522 53 309 2.0 7.0 0.00 0.00 0.00 36 1008.2
20260505212020 53 346 3.0 9.0 0.00 0.00 0.00 37 1008.2
20260505211518 53 283 2.0 8.0 0.00 0.00 0.00 36 1008.2
20260505211016 54 327 3.0 9.0 0.00 0.00 0.00 35 1008.2
20260505210553 54 320 3.0 10.0 0.00 0.00 0.00 36 1008.1
20260505210031 54 292 3.0 7.0 0.00 0.00 0.00 35 1008.2
20260505205529 54 260 3.0 7.0 0.00 0.00 0.00 36 1008.3
20260505205028 54 297 3.0 7.0 0.00 0.00 0.00 35 1008.2
20260505204526 54 327 3.0 8.0 0.00 0.00 0.00 35 1008.3
20260505204044 55 243 3.0 11.0 0.00 0.00 0.00 34 1008.4
20260505203522 56 322 3.0 10.0 0.00 0.00 0.00 33 1008.4
20260505203021 56 226 4.0 13.0 0.00 0.00 0.00 35 1008.3
20260505202519 55 307 4.0 11.0 0.00 0.00 0.00 35 1008.3
20260505202017 55 322 4.0 8.0 0.00 0.00 0.00 35 1008.3
20260505201555 55 294 4.0 10.0 0.00 0.00 0.00 33 1008.4
20260505201032 55 308 4.0 21.0 0.00 0.00 0.00 35 1008.3
20260505200531 55 312 4.0 13.0 0.00 0.00 0.00 35 1008.4
20260505200029 55 289 4.0 14.0 0.00 0.00 0.00 36 1008.4
20260505195527 55 259 4.0 15.0 0.00 0.00 0.00 35 1008.4
20260505195025 55 307 3.0 8.0 0.00 0.00 0.00 36 1008.4
20260505194524 54 329 3.0 14.0 0.00 0.00 0.00 35 1008.5
20260505194022 54 290 4.0 10.0 0.00 0.00 0.00 35 1008.5
20260505193520 55 314 4.0 14.0 0.00 0.00 0.00 33 1008.3
20260505193038 56 318 4.0 15.0 0.00 0.00 0.00 34 1008.3
20260505192516 56 294 3.0 11.0 0.00 0.00 0.00 35 1008.4
20260505192034 55 213 5.0 13.0 0.00 0.00 0.00 37 1008.5
20260505191552 54 295 3.0 8.0 0.00 0.00 0.00 37 1008.4
20260505191030 53 317 4.0 13.0 0.00 0.00 0.00 36 1008.5
20260505190548 52 299 5.0 11.0 0.00 0.00 0.00 36 1008.6
20260505190027 52 298 4.0 13.0 0.00 0.00 0.00 35 1008.6
20260505185525 52 291 2.0 10.0 0.00 0.00 0.00 36 1008.6
20260505185023 52 307 4.0 11.0 0.00 0.00 0.00 35 1008.6
20260505184521 53 281 2.0 8.0 0.00 0.00 0.00 36 1008.7
20260505184020 53 274 3.0 9.0 0.00 0.00 0.00 38 1008.7
20260505183518 53 274 3.0 10.0 0.00 0.00 0.00 37 1008.6
20260505183056 53 283 2.0 6.0 0.00 0.00 0.00 38 1008.5
20260505182533 53 301 4.0 10.0 0.00 0.00 0.00 37 1008.5
20260505182032 53 289 2.0 9.0 0.00 0.00 0.00 37 1008.6
20260505181530 53 326 3.0 11.0 0.00 0.00 0.00 36 1008.5
20260505181028 53 317 6.0 14.0 0.00 0.00 0.00 36 1008.6
20260505180546 53 265 4.0 16.0 0.00 0.00 0.00 39 1008.4
20260505180024 52 282 2.0 7.0 0.00 0.00 0.00 39 1008.4
20260505175543 52 318 2.0 7.0 0.00 0.00 0.00 38 1008.5
20260505175021 52 330 4.0 10.0 0.00 0.00 0.00 37 1008.4
20260505174539 52 311 3.0 10.0 0.00 0.00 0.00 37 1008.5
20260505174018 52 309 4.0 15.0 0.00 0.00 0.00 36 1008.5
20260505173529 53 287 4.0 8.0 0.00 0.00 0.00 37 1008.4
20260505173027 53 286 4.0 9.0 0.00 0.00 0.00 37 1008.5
20260505172525 52 308 3.0 9.0 0.00 0.00 0.00 38 1008.6
20260505172024 52 299 4.0 8.0 0.00 0.00 0.00 38 1008.5
20260505171522 52 285 3.0 9.0 0.00 0.00 0.00 37 1008.4
20260505171020 51 299 3.0 9.0 0.00 0.00 0.00 37 1008.5
20260505170519 52 319 5.0 15.0 0.00 0.00 0.00 35 1008.4
20260505170017 52 328 5.0 19.0 0.00 0.00 0.00 36 1008.4
20260505165554 53 310 3.0 9.0 0.00 0.00 0.00 37 1008.4
20260505165032 53 320 4.0 14.0 0.00 0.00 0.00 36 1008.6
20260505164530 53 327 4.0 9.0 0.00 0.00 0.00 38 1008.5
20260505164048 53 295 3.0 7.0 0.00 0.00 0.00 37 1008.5
20260505163547 52 312 5.0 15.0 0.00 0.00 0.00 37 1008.6
20260505163025 52 305 3.0 9.0 0.00 0.00 0.00 36 1008.7
20260505162523 52 296 5.0 13.0 0.00 0.00 0.00 38 1008.6
20260505162102 52 305 4.0 11.0 0.00 0.00 0.00 37 1008.7
20260505161520 52 320 4.0 9.0 0.00 0.00 0.00 37 1008.6
20260505161018 52 307 3.0 10.0 0.00 0.00 0.00 36 1008.7
20260505160516 52 291 3.0 9.0 0.00 0.00 0.00 38 1008.5
20260505153043 51 311 3.0 9.0 0.00 0.00 0.00 39 1008.2
20260505152521 50 250 3.0 8.0 0.00 0.00 0.00 41 1008.2
20260505152019 51 322 2.0 9.0 0.00 0.00 0.00 39 1008.3
20260505151518 51 311 2.0 7.0 0.00 0.00 0.00 41 1008.1
20260505151035 50 312 2.0 11.0 0.00 0.00 0.00 40 1008.1
20260505150533 50 337 2.0 7.0 0.00 0.00 0.00 40 1008.1
20260505140551 48 308 3.0 9.0 0.00 0.00 0.00 49 1008.4
20260505125023 40 327 1.0 3.0 0.00 0.00 0.00 63 1008.0
20260505124542 40 319 1.0 2.0 0.00 0.00 0.00 64 1008.0
20260505124020 39 317 0.0 1.0 0.00 0.00 0.00 64 1007.7
20260505123518 39 314 0.0 1.0 0.00 0.00 0.00 65 1007.7
20260505123016 39 325 1.0 4.0 0.00 0.00 0.00 65 1007.7
20260505122534 39 310 0.0 3.0 0.00 0.00 0.00 65 1007.6
20260505122032 38 327 0.0 1.0 0.00 0.00 0.00 66 1007.5
20260505121550 38 328 0.0 1.0 0.00 0.00 0.00 66 1007.5
20260505121028 38 327 0.0 3.0 0.00 0.00 0.00 67 1007.3
20260505120527 37 0.0 0.0 0.00 0.00 0.00 68 1007.3
20260505120025 36 0.0 0.0 0.00 0.00 0.00 70 1007.1
20260505115523 36 0.0 0.0 0.00 0.00 0.00 72 1007.1
20260505115042 35 0.0 0.0 0.00 0.00 0.00 73 1006.8
20260505114519 35 0.0 0.0 0.00 0.00 0.00 73 1006.8
20260505114018 34 0.0 0.0 0.00 0.00 0.00 73 1006.6
20260505113516 35 311 1.0 2.0 0.00 0.00 0.00 73 1006.5
20260505113033 34 295 1.0 3.0 0.00 0.00 0.00 73 1006.4
20260505112531 34 295 1.0 2.0 0.00 0.00 0.00 73 1006.3
20260505112030 34 299 1.0 3.0 0.00 0.00 0.00 72 1006.2
20260505111528 35 327 1.0 2.0 0.00 0.00 0.00 71 1006.2
20260505111026 36 327 0.0 2.0 0.00 0.00 0.00 70 1006.4
20260505110525 37 327 0.0 1.0 0.00 0.00 0.00 68 1006.3
20260505102027 39 0.0 0.0 0.00 0.00 0.00 62 1005.8
20260505101525 39 0.0 0.0 0.00 0.00 0.00 62 1005.9
20260505101024 39 322 0.0 2.0 0.00 0.00 0.00 62 1005.8
20260505100522 38 327 1.0 2.0 0.00 0.00 0.00 63 1005.7
20260505100021 38 324 1.0 6.0 0.00 0.00 0.00 63 1005.5
20260505095539 39 0.0 0.0 0.00 0.00 0.00 63 1005.5
20260505095017 39 0.0 0.0 0.00 0.00 0.00 62 1005.4
20260505094534 39 0.0 0.0 0.00 0.00 0.00 61 1005.5
20260505094032 40 0.0 0.0 0.00 0.00 0.00 61 1005.4
20260505093531 40 321 0.0 1.0 0.00 0.00 0.00 62 1005.3
20260505093029 40 321 1.0 2.0 0.00 0.00 0.00 61 1005.3
20260505092527 41 0.0 0.0 0.00 0.00 0.00 59 1005.2
20260505092025 41 321 0.0 2.0 0.00 0.00 0.00 58 1005.3
20260505091524 41 321 1.0 2.0 0.00 0.00 0.00 57 1005.1
20260505091022 41 318 0.0 2.0 0.00 0.00 0.00 57 1005.2
20260505090520 42 312 0.0 1.0 0.00 0.00 0.00 57 1005.2
20260505090018 42 313 1.0 3.0 0.00 0.00 0.00 57 1005.1
20260505085517 42 292 0.0 3.0 0.00 0.00 0.00 58 1005.0
20260505085034 41 0.0 0.0 0.00 0.00 0.00 58 1005.0
20260505084532 41 297 1.0 3.0 0.00 0.00 0.00 59 1005.0
20260505084030 41 296 1.0 3.0 0.00 0.00 0.00 60 1004.9
20260505083529 41 302 1.0 4.0 0.00 0.00 0.00 60 1004.7
20260505083027 41 306 0.0 2.0 0.00 0.00 0.00 61 1004.7
20260505082525 40 306 0.0 1.0 0.00 0.00 0.00 62 1004.7
20260505082024 40 0.0 0.0 0.00 0.00 0.00 63 1004.5
20260505081522 40 306 0.0 1.0 0.00 0.00 0.00 64 1004.4
20260505081020 40 0.0 0.0 0.00 0.00 0.00 64 1004.4
20260505080519 40 306 0.0 1.0 0.00 0.00 0.00 62 1004.2
20260505080037 40 0.0 0.0 0.00 0.00 0.00 61 1004.2
20260505075534 40 0.0 0.0 0.00 0.00 0.00 63 1004.3
20260505075032 41 0.0 0.0 0.00 0.00 0.00 63 1004.2
20260505074530 41 0.0 0.0 0.00 0.00 0.00 62 1004.2
20260505074029 41 0.0 0.0 0.00 0.00 0.00 62 1004.1
20260505073527 41 0.0 0.0 0.00 0.00 0.00 62 1004.1
20260505073025 42 0.0 0.0 0.00 0.00 0.00 59 1004.1
20260505072523 43 0.0 0.0 0.00 0.00 0.00 58 1004.1
20260505072022 43 0.0 0.0 0.00 0.00 0.00 55 1004.2
20260505071520 43 0.0 0.0 0.00 0.00 0.00 52 1004.2
20260505071019 43 0.0 0.0 0.00 0.00 0.00 53 1004.1
20260505070517 43 0.0 0.0 0.00 0.00 0.00 54 1004.2
20260505070034 44 0.0 0.0 0.00 0.00 0.00 53 1004.3
20260505065532 44 0.0 0.0 0.00 0.00 0.00 52 1004.2
20260505065030 44 0.0 0.0 0.00 0.00 0.00 51 1004.1
20260505064529 44 0.0 0.0 0.00 0.00 0.00 51 1004.2
20260505064047 44 0.0 0.0 0.00 0.00 0.00 50 1004.3
20260505063525 45 306 0.0 1.0 0.00 0.00 0.00 50 1004.2
20260505063023 45 306 0.0 2.0 0.00 0.00 0.00 50 1004.4
20260505062522 45 306 0.0 1.0 0.00 0.00 0.00 50 1004.3
20260505062020 45 306 1.0 2.0 0.00 0.00 0.00 50 1004.3
20260505061518 45 0.0 0.0 0.00 0.00 0.00 50 1004.4
20260505061016 45 307 0.0 1.0 0.00 0.00 0.00 50 1004.4
20260505060534 45 0.0 0.0 0.00 0.00 0.00 50 1004.5
20260505060032 45 307 0.0 1.0 0.00 0.00 0.00 50 1004.4
20260505055530 46 306 1.0 3.0 0.00 0.00 0.00 50 1004.5
20260505055028 46 307 0.0 1.0 0.00 0.00 0.00 49 1004.5
20260505054527 46 307 0.0 1.0 0.00 0.00 0.00 49 1004.4
20260505054025 46 307 0.0 1.0 0.00 0.00 0.00 49 1004.4
20260505053523 47 307 1.0 2.0 0.00 0.00 0.00 49 1004.3
20260505053022 47 307 1.0 2.0 0.00 0.00 0.00 49 1004.3
20260505052540 47 307 1.0 3.0 0.00 0.00 0.00 48 1004.1
20260505052018 47 305 1.0 2.0 0.00 0.00 0.00 48 1004.1
20260505051517 47 300 1.0 6.0 0.00 0.00 0.00 47 1004.1
20260505051034 48 289 2.0 8.0 0.00 0.00 0.00 47 1004.0
20260505050532 48 299 2.0 8.0 0.00 0.00 0.00 47 1003.9
20260505041533 50 328 3.0 11.0 0.00 0.00 0.00 44 1003.5
20260505041031 50 311 4.0 9.0 0.00 0.00 0.00 44 1003.4
20260505040530 51 324 3.0 7.0 0.00 0.00 0.00 44 1003.2
20260505040028 51 309 4.0 11.0 0.00 0.00 0.00 43 1003.2
20260505035526 51 297 3.0 10.0 0.00 0.00 0.00 44 1003.2
20260505035024 51 320 2.0 6.0 0.00 0.00 0.00 44 1003.3
20260505034523 51 329 3.0 10.0 0.00 0.00 0.00 43 1003.1
20260505034021 51 323 3.0 11.0 0.00 0.00 0.00 43 1002.9
20260505033518 51 319 3.0 10.0 0.00 0.00 0.00 43 1002.9
20260505033016 51 318 2.0 4.0 0.00 0.00 0.00 43 1002.8
20260505032533 51 316 3.0 10.0 0.00 0.00 0.00 43 1002.8
20260505032031 51 322 3.0 9.0 0.00 0.00 0.00 43 1002.7
20260505031529 51 329 3.0 9.0 0.00 0.00 0.00 44 1002.6
20260505031027 52 320 4.0 9.0 0.00 0.00 0.00 45 1002.5
20260505030525 52 316 2.0 6.0 0.00 0.00 0.00 44 1002.6
20260505030043 52 315 4.0 15.0 0.00 0.00 0.00 44 1002.5
20260505025522 53 311 1.0 4.0 0.00 0.00 0.00 44 1002.3
20260505025019 53 310 2.0 7.0 0.00 0.00 0.00 43 1002.1
20260505024517 53 304 3.0 10.0 0.00 0.00 0.00 43 1002.1
20260505024035 54 316 4.0 13.0 0.00 0.00 0.00 43 1002.1
20260505023532 54 317 4.0 10.0 0.00 0.00 0.00 43 1001.8
20260505023030 54 313 5.0 13.0 0.00 0.00 0.00 42 1001.7
20260505022529 54 325 4.0 9.0 0.00 0.00 0.00 42 1001.6
20260505022026 55 317 5.0 15.0 0.00 0.00 0.00 42 1001.5
20260505021523 55 315 5.0 14.0 0.00 0.00 0.00 41 1001.3
20260505021022 55 321 5.0 14.0 0.00 0.00 0.00 42 1001.2
20260505020540 55 318 3.0 9.0 0.00 0.00 0.00 42 1001.1
20260505020018 55 296 2.0 4.0 0.00 0.00 0.00 41 1000.9
20260505015535 56 307 3.0 11.0 0.00 0.00 0.00 41 1000.8
20260505015052 56 326 3.0 16.0 0.00 0.00 0.00 41 1000.7
20260505014530 56 322 6.0 15.0 0.00 0.00 0.00 41 1000.6
20260505014029 57 321 5.0 16.0 0.00 0.00 0.00 40 1000.5
20260505013527 57 329 3.0 13.0 0.00 0.00 0.00 40 1000.4
20260505013024 57 320 5.0 14.0 0.00 0.00 0.00 40 1000.2
20260505012522 57 318 4.0 11.0 0.00 0.00 0.00 39 1000.2
20260505012041 58 321 3.0 6.0 0.00 0.00 0.00 39 999.9
20260505011519 58 328 3.0 7.0 0.00 0.00 0.00 38 999.9
20260505011017 58 316 5.0 11.0 0.00 0.00 0.00 39 999.8
20260505010554 58 305 4.0 13.0 0.00 0.00 0.00 39 999.6
20260505010052 58 312 4.0 13.0 0.00 0.00 0.00 39 999.5
20260505005530 59 321 4.0 9.0 0.00 0.00 0.00 38 999.5
20260505005028 59 341 4.0 10.0 0.00 0.00 0.00 38 999.4
20260505004607 59 333 3.0 10.0 0.00 0.00 0.00 38 999.2
20260505004045 59 330 4.0 9.0 0.00 0.00 0.00 37 999.4
20260505003523 60 326 4.0 14.0 0.00 0.00 0.00 37 999.4
20260505003041 60 319 4.0 13.0 0.00 0.00 0.00 36 999.5
20260505002519 60 326 3.0 7.0 0.00 0.00 0.00 36 999.4
20260505002017 60 318 4.0 13.0 0.00 0.00 0.00 36 999.3
20260505001535 61 323 3.0 9.0 0.00 0.00 0.00 36 999.4
20260505001032 61 322 3.0 7.0 0.00 0.00 0.00 35 999.3
20260505000531 61 316 5.0 17.0 0.00 0.00 0.00 35 999.2
20260505000049 61 327 4.0 14.0 0.00 0.00 0.00 34 999.2
20260504235527 61 315 5.0 11.0 0.00 0.00 0.00 35 999.2
20260504235045 61 318 4.0 13.0 0.00 0.00 0.00 35 999.1
20260504234523 62 312 4.0 7.0 0.00 0.00 0.00 35 999.0
20260504234021 62 325 4.0 13.0 0.00 0.00 0.00 34 999.0
20260504233519 62 335 4.0 13.0 0.00 0.00 0.00 34 998.7
20260504233030 63 322 3.0 10.0 0.00 0.00 0.00 33 998.8
20260504232534 63 320 5.0 10.0 0.00 0.00 0.00 34 998.8
20260504232032 63 319 4.0 14.0 0.00 0.00 0.00 33 998.8
20260504231530 64 314 8.0 22.0 0.00 0.00 0.00 31 998.7
20260504231028 64 326 5.0 17.0 0.00 0.00 0.00 31 998.8
20260504230526 64 309 3.0 9.0 0.00 0.00 0.00 31 998.5
20260504230024 64 323 5.0 15.0 0.00 0.00 0.00 30 998.6
20260504225523 64 303 5.0 16.0 0.00 0.00 0.00 30 998.4
20260504225021 64 313 4.0 14.0 0.00 0.00 0.00 30 998.3
20260504224519 64 299 5.0 14.0 0.00 0.00 0.00 30 998.2
20260504224017 65 314 3.0 15.0 0.00 0.00 0.00 30 998.1